Time,TemperatureF,DewpointF,PressureIn,WindDirection,WindDirectionDegrees,WindSpeedMPH,WindSpeedGustMPH,Humidity,HourlyPrecipIn,Conditions,Clouds,dailyrainin,SoftwareType,DateUTC
2013-07-11 00:01:00,65.0,63.0,-100.00,WSW,255,4.0,6.0,92,0.00,,,-99.99,,2013-07-11 04:01:00,
2013-07-11 00:42:00,65.0,63.0,-100.00,West,265,5.0,7.0,92,0.00,,,-99.99,,2013-07-11 04:42:00,
2013-07-11 01:02:00,65.0,63.0,-100.00,West,265,4.0,7.0,92,0.00,,,-99.99,,2013-07-11 05:02:00,
2013-07-11 01:12:00,65.0,63.0,-100.00,West,275,4.0,6.0,92,0.00,,,-99.99,,2013-07-11 05:12:00,
2013-07-11 02:01:00,64.0,62.0,-100.00,WSW,255,4.0,7.0,92,0.00,,,-99.99,,2013-07-11 06:01:00,
2013-07-11 02:12:00,64.0,62.0,-100.00,WSW,255,5.0,7.0,92,0.00,,,-99.99,,2013-07-11 06:12:00,
2013-07-11 02:22:00,64.0,62.0,-100.00,West,260,3.0,7.0,92,0.00,,,-99.99,,2013-07-11 06:22:00,
2013-07-11 02:32:00,64.0,62.0,-100.00,West,265,4.0,9.0,92,0.00,,,-99.99,,2013-07-11 06:32:00,
2013-07-11 02:43:00,64.0,62.0,-100.00,West,260,4.0,8.0,92,0.00,,,-99.99,,2013-07-11 06:43:00,
2013-07-11 02:52:00,64.0,62.0,-100.00,West,260,6.0,9.0,92,0.00,,,-99.99,,2013-07-11 06:52:00,
2013-07-11 03:02:00,64.0,62.0,-100.00,West,275,6.0,9.0,92,0.00,,,-99.99,,2013-07-11 07:02:00,
2013-07-11 03:12:00,64.0,62.0,-100.00,WNW,285,4.0,6.0,92,0.00,,,-99.99,,2013-07-11 07:12:00,
2013-07-11 03:32:00,64.0,62.0,-100.00,West,280,4.0,9.0,93,0.00,,,-99.99,,2013-07-11 07:32:00,
2013-07-11 03:45:00,64.0,62.0,-100.00,WNW,285,6.0,12.0,92,0.00,,,-99.99,,2013-07-11 07:45:00,
2013-07-11 03:53:00,64.0,62.0,-100.00,West,275,6.0,10.0,92,0.00,,,-99.99,,2013-07-11 07:53:00,
2013-07-11 04:02:00,64.0,62.0,-100.00,West,270,6.0,9.0,92,0.00,,,-99.99,,2013-07-11 08:02:00,
2013-07-11 04:12:00,64.0,62.0,-100.00,West,270,6.0,9.0,92,0.00,,,-99.99,,2013-07-11 08:12:00,
2013-07-11 04:34:00,64.0,62.0,-100.00,West,265,4.0,8.0,93,0.00,,,-99.99,,2013-07-11 08:34:00,
2013-07-11 04:43:00,64.0,62.0,-100.00,West,265,3.0,7.0,93,0.00,,,-99.99,,2013-07-11 08:43:00,
2013-07-11 04:53:00,64.0,62.0,-100.00,WNW,290,3.0,6.0,92,0.00,,,-99.99,,2013-07-11 08:53:00,
2013-07-11 05:03:00,64.0,62.0,-100.00,WNW,295,1.0,4.0,92,0.00,,,-99.99,,2013-07-11 09:03:00,
2013-07-11 05:12:00,64.0,62.0,-100.00,West,265,3.0,4.0,92,0.00,,,-99.99,,2013-07-11 09:12:00,
2013-07-11 05:33:00,64.0,62.0,-100.00,West,275,2.0,5.0,93,0.00,,,-99.99,,2013-07-11 09:33:00,
2013-07-11 05:43:00,64.0,62.0,-100.00,NW,305,1.0,6.0,92,0.00,,,-99.99,,2013-07-11 09:43:00,
2013-07-11 06:01:00,64.0,62.0,-100.00,NW,325,4.0,7.0,92,0.00,,,-99.99,,2013-07-11 10:01:00,
2013-07-11 06:12:00,64.0,62.0,-100.00,NW,310,2.0,6.0,92,0.00,,,-99.99,,2013-07-11 10:12:00,
2013-07-11 06:43:00,64.0,62.0,-100.00,North,10,6.0,9.0,91,0.00,,,-99.99,,2013-07-11 10:43:00,
2013-07-11 07:02:00,64.0,61.0,-100.00,NNW,345,2.0,6.0,89,0.00,,,-99.99,,2013-07-11 11:02:00,
2013-07-11 08:12:00,65.0,61.0,-100.00,NNE,15,2.0,4.0,86,0.00,,,-99.99,,2013-07-11 12:12:00,
2013-07-11 09:02:00,67.0,60.0,-100.00,ENE,60,4.0,12.0,78,0.00,,,-99.99,,2013-07-11 13:02:00,
2013-07-11 09:23:00,68.0,60.0,-100.00,ENE,75,4.0,9.0,74,0.00,,,-99.99,,2013-07-11 13:23:00,
2013-07-11 09:34:00,68.0,59.0,-100.00,ENE,70,4.0,7.0,73,0.00,,,-99.99,,2013-07-11 13:34:00,
2013-07-11 09:45:00,68.0,58.0,-100.00,NE,35,6.0,9.0,69,0.00,,,-99.99,,2013-07-11 13:45:00,
2013-07-11 10:05:00,70.0,59.0,-100.00,ENE,75,5.0,9.0,67,0.00,,,-99.99,,2013-07-11 14:05:00,
2013-07-11 10:15:00,69.0,57.0,-100.00,ENE,65,9.0,13.0,66,0.00,,,-99.99,,2013-07-11 14:15:00,
2013-07-11 10:35:00,69.0,58.0,-100.00,NE,50,3.0,11.0,67,0.00,,,-99.99,,2013-07-11 14:35:00,
2013-07-11 10:45:00,70.0,57.0,-100.00,NE,45,6.0,10.0,63,0.00,,,-99.99,,2013-07-11 14:45:00,
2013-07-11 10:54:00,70.0,57.0,-100.00,NE,50,5.0,9.0,63,0.00,,,-99.99,,2013-07-11 14:54:00,
2013-07-11 11:05:00,71.0,56.0,-100.00,North,0,4.0,7.0,60,0.00,,,-99.99,,2013-07-11 15:05:00,
2013-07-11 12:06:00,72.0,58.0,-100.00,ENE,75,6.0,12.0,60,0.00,,,-99.99,,2013-07-11 16:06:00,
2013-07-11 12:15:00,72.0,57.0,-100.00,NE,35,7.0,11.0,59,0.00,,,-99.99,,2013-07-11 16:15:00,
2013-07-11 12:47:00,72.0,59.0,-100.00,NW,325,3.0,9.0,62,0.00,,,-99.99,,2013-07-11 16:47:00,
2013-07-11 13:46:00,73.0,58.0,-100.00,NNE,30,5.0,9.0,59,0.00,,,-99.99,,2013-07-11 17:46:00,
2013-07-11 14:14:00,74.0,59.0,-100.00,ENE,70,3.0,8.0,58,0.00,,,-99.99,,2013-07-11 18:14:00,
2013-07-11 14:24:00,72.0,58.0,-100.00,NNW,345,6.0,9.0,59,0.00,,,-99.99,,2013-07-11 18:24:00,
2013-07-11 14:35:00,75.0,58.0,-100.00,North,10,4.0,6.0,56,0.00,,,-99.99,,2013-07-11 18:35:00,
2013-07-11 14:46:00,72.0,57.0,-100.00,NNE,30,6.0,10.0,59,0.00,,,-99.99,,2013-07-11 18:46:00,
2013-07-11 15:04:00,75.0,56.0,-100.00,NW,305,3.0,8.0,51,0.00,,,-99.99,,2013-07-11 19:04:00,
2013-07-11 15:24:00,75.0,58.0,-100.00,North,5,4.0,7.0,55,0.00,,,-99.99,,2013-07-11 19:24:00,
2013-07-11 15:39:00,75.0,58.0,-100.00,North,5,4.0,7.0,55,0.00,,,-99.99,,2013-07-11 19:39:00,
2013-07-11 16:06:00,75.0,56.0,-100.00,NNE,15,2.0,6.0,51,0.00,,,-99.99,,2013-07-11 20:06:00,
2013-07-11 16:13:00,74.0,57.0,-100.00,NNW,335,6.0,9.0,55,0.00,,,-99.99,,2013-07-11 20:13:00,
2013-07-11 17:05:00,75.0,56.0,-100.00,North,0,6.0,9.0,52,0.00,,,-99.99,,2013-07-11 21:05:00,
2013-07-11 17:24:00,74.0,58.0,-100.00,North,0,4.0,10.0,57,0.00,,,-99.99,,2013-07-11 21:24:00,
2013-07-11 17:36:00,75.0,55.0,-100.00,North,350,8.0,14.0,50,0.00,,,-99.99,,2013-07-11 21:36:00,
2013-07-11 17:45:00,74.0,55.0,-100.00,NNW,340,7.0,12.0,52,0.00,,,-99.99,,2013-07-11 21:45:00,
2013-07-11 18:05:00,75.0,54.0,-100.00,North,0,6.0,15.0,48,0.00,,,-99.99,,2013-07-11 22:05:00,
2013-07-11 18:25:00,74.0,54.0,-100.00,North,0,7.0,12.0,49,0.00,,,-99.99,,2013-07-11 22:25:00,
2013-07-11 18:47:00,74.0,52.0,-100.00,North,0,7.0,14.0,46,0.00,,,-99.99,,2013-07-11 22:47:00,
2013-07-11 19:25:00,73.0,54.0,-100.00,NNE,15,7.0,11.0,51,0.00,,,-99.99,,2013-07-11 23:25:00,
2013-07-11 19:46:00,72.0,54.0,-100.00,North,350,6.0,12.0,52,0.00,,,-99.99,,2013-07-11 23:46:00,
2013-07-11 19:55:00,71.0,54.0,-100.00,NNW,345,7.0,13.0,53,0.00,,,-99.99,,2013-07-11 23:55:00,
2013-07-11 20:05:00,71.0,54.0,-100.00,North,355,4.0,12.0,54,0.00,,,-99.99,,2013-07-12 00:05:00,
2013-07-11 20:14:00,71.0,53.0,-100.00,North,0,6.0,9.0,54,0.00,,,-99.99,,2013-07-12 00:14:00,
2013-07-11 20:25:00,70.0,54.0,-100.00,North,355,4.0,10.0,56,0.00,,,-99.99,,2013-07-12 00:25:00,
2013-07-11 20:36:00,70.0,54.0,-100.00,North,0,3.0,6.0,57,0.00,,,-99.99,,2013-07-12 00:36:00,
2013-07-11 20:44:00,70.0,54.0,-100.00,North,5,4.0,6.0,58,0.00,,,-99.99,,2013-07-12 00:44:00,
2013-07-11 20:55:00,69.0,54.0,-100.00,North,355,4.0,9.0,59,0.00,,,-99.99,,2013-07-12 00:55:00,
2013-07-11 21:05:00,68.0,54.0,-100.00,North,350,4.0,7.0,60,0.00,,,-99.99,,2013-07-12 01:05:00,
2013-07-11 21:13:00,68.0,54.0,-100.00,NNE,15,4.0,7.0,61,0.00,,,-99.99,,2013-07-12 01:13:00,
2013-07-11 21:37:00,67.0,54.0,-100.00,North,0,4.0,6.0,62,0.00,,,-99.99,,2013-07-12 01:37:00,
2013-07-11 21:46:00,66.0,54.0,-100.00,North,0,2.0,8.0,64,0.00,,,-99.99,,2013-07-12 01:46:00,
2013-07-11 23:03:00,64.0,54.0,-100.00,North,355,4.0,6.0,68,0.00,,,-99.99,,2013-07-12 03:03:00,
2013-07-11 23:45:00,64.0,54.0,-100.00,North,5,3.0,9.0,69,0.00,,,-99.99,,2013-07-12 03:45:00,